Weather History for Manchester, United Kingdom

Change the Weather History Date:

Wednesday, February 27, 2013

  Actual Average Record
Temperature  
Mean Temperature 40 °F -  
Max Temperature 48 °F 48 °F 55 °F (2003)
Min Temperature 32 °F 36 °F 28 °F (2005)
Degree Days  
Heating Degree Days 24    
Moisture  
Dew Point 32 °F    
Average Humidity 76    
Maximum Humidity 87    
Minimum Humidity 54    
Precipitation  
Precipitation 0.00 in 0.08 in - ()
Sea Level Pressure  
Sea Level Pressure 30.60 in    
Wind  
Wind Speed 5 mph ()    
Max Wind Speed 10 mph    
Max Gust Speed -    
Visibility 5.9 miles    
Events      
Averages and records for this station are not official NWS values.
T = Trace of Precipitation, MM = Missing Value Source: Averaged Metar Reports

Daily Weather History Graph

Daily Weather History Graph

Search for Another Location

Airport:

Trip Planner

Search our weather history database for the weather conditions in past years. The results will help you decide how hot, cold, wet, or windy it might be!

Date:

Astronomy

Feb. 27, 2013 Rise Set
Actual Time 7:01 AM GMT 5:43 PM GMT
Civil Twilight 6:25 AM GMT 6:18 PM GMT
Nautical Twilight 5:45 AM GMT 6:58 PM GMT
Astronomical Twilight 5:05 AM GMT 7:39 PM GMT
Moon 8:15 PM GMT (2/27) 7:07 AM GMT (2/27)
Length of Visible Light 11h 52m
Length of Day
10h 42m
Full, 97% of the Moon is Illuminated
Feb 27
Full
Mar 4
Last Quarter
Mar 11
New
Mar 19
First Quarter
Mar 27
Full

Hourly Weather History & Observations

Time (GMT) Temp. Windchill Dew Point Humidity Pressure Visibility Wind Dir Wind Speed Gust Speed Precip Events Conditions
12:20 AM 35.6 °F 30.7 °F 32.0 °F 87% 30.63 in 5.6 mi NE 5.8 mph - N/A   Mostly Cloudy
12:50 AM 35.6 °F 30.7 °F 32.0 °F 87% 30.63 in 5.6 mi NE 5.8 mph - N/A   Mostly Cloudy
1:20 AM 33.8 °F 29.6 °F 30.2 °F 87% 30.63 in 5.6 mi NE 4.6 mph - N/A   Mostly Cloudy
1:50 AM 35.6 °F 30.7 °F 32.0 °F 87% 30.63 in 6.2 mi North 5.8 mph - N/A   Mostly Cloudy
2:20 AM 35.6 °F 32.8 °F 32.0 °F 87% 30.63 in 6.2 mi ENE 3.5 mph - N/A   Overcast
2:50 AM 35.6 °F - 32.0 °F 87% 30.63 in 4.3 mi Calm Calm - N/A   Overcast
3:20 AM 35.6 °F - 32.0 °F 87% 30.63 in 5.0 mi NE 2.3 mph - N/A   Overcast
3:50 AM 35.6 °F 30.7 °F 32.0 °F 87% 30.63 in 5.0 mi NE 5.8 mph - N/A   Overcast
4:20 AM 35.6 °F 31.7 °F 32.0 °F 87% 30.63 in 6.2 mi NE 4.6 mph - N/A   Overcast
4:50 AM 35.6 °F 29.9 °F 32.0 °F 87% 30.63 in 6.2 mi ENE 6.9 mph - N/A   Overcast
5:20 AM 35.6 °F 31.7 °F 32.0 °F 87% 30.63 in 6.2 mi ENE 4.6 mph - N/A   Overcast
5:50 AM 35.6 °F 30.7 °F 32.0 °F 87% 30.63 in 6.2 mi East 5.8 mph - N/A   Overcast
6:20 AM 35.6 °F 31.7 °F 32.0 °F 87% 30.63 in 6.2 mi ENE 4.6 mph - N/A   Mostly Cloudy
6:50 AM 35.6 °F - 32.0 °F 87% 30.63 in 6.2 mi ENE 2.3 mph - N/A   Mostly Cloudy
7:20 AM 35.6 °F 29.9 °F 32.0 °F 87% 30.63 in 6.2 mi NE 6.9 mph - N/A   Scattered Clouds
7:50 AM 35.6 °F 31.7 °F 30.2 °F 81% 30.63 in 5.6 mi NE 4.6 mph - N/A   Scattered Clouds
8:20 AM 35.6 °F 30.7 °F 32.0 °F 87% 30.63 in 6.2 mi ENE 5.8 mph - N/A   Scattered Clouds
8:50 AM 37.4 °F - 32.0 °F 81% 30.63 in 6.2 mi Variable 2.3 mph - N/A   Scattered Clouds
9:20 AM 39.2 °F - 32.0 °F 75% 30.63 in 6.2 mi Variable 2.3 mph - N/A   Scattered Clouds
9:50 AM 39.2 °F - 32.0 °F 75% 30.63 in 6.2 mi Calm Calm - N/A   Scattered Clouds
10:20 AM 41.0 °F 39.0 °F 32.0 °F 70% 30.66 in 6.2 mi Variable 3.5 mph - N/A   Scattered Clouds
10:50 AM 41.0 °F - 32.0 °F 70% 30.63 in 6.2 mi Variable 2.3 mph - N/A   Scattered Clouds
11:20 AM 42.8 °F 40.1 °F 32.0 °F 66% 30.63 in 6.2 mi NE 4.6 mph - N/A   Partly Cloudy
11:50 AM 42.8 °F 37.5 °F 32.0 °F 66% 30.63 in 6.2 mi NNE 9.2 mph - N/A   Partly Cloudy
12:20 PM 42.8 °F 38.0 °F 32.0 °F 66% 30.63 in 6.2 mi NE 8.1 mph - N/A   Partly Cloudy
12:50 PM 44.6 °F 41.4 °F 32.0 °F 61% 30.60 in 6.2 mi ENE 5.8 mph - N/A   Partly Cloudy
1:20 PM 46.4 °F 42.9 °F 33.8 °F 62% 30.60 in - NNE 6.9 mph - N/A   Clear
1:50 PM 46.4 °F 42.4 °F 32.0 °F 57% 30.60 in - NE 8.1 mph - N/A   Clear
2:20 PM 46.4 °F 43.5 °F 32.0 °F 57% 30.57 in - NE 5.8 mph - N/A   Clear
2:50 PM 48.2 °F - 32.0 °F 54% 30.57 in - NE 5.8 mph - N/A   Clear
3:20 PM 46.4 °F 41.5 °F 33.8 °F 62% 30.57 in - NE 10.4 mph - N/A   Clear
3:50 PM 46.4 °F 41.9 °F 32.0 °F 57% 30.57 in - NE 9.2 mph - N/A   Clear
4:20 PM 46.4 °F 42.4 °F 33.8 °F 62% 30.57 in - NE 8.1 mph - N/A   Clear
4:50 PM 44.6 °F 39.7 °F 33.8 °F 66% 30.57 in - ENE 9.2 mph - N/A   Clear
5:20 PM 42.8 °F 37.5 °F 33.8 °F 70% 30.57 in - NE 9.2 mph - N/A   Clear
5:50 PM 42.8 °F 37.0 °F 32.0 °F 66% 30.57 in - ENE 10.4 mph - N/A   Clear
6:20 PM 39.2 °F 33.6 °F 32.0 °F 75% 30.57 in - ENE 8.1 mph - N/A   Clear
6:50 PM 39.2 °F 34.2 °F 32.0 °F 75% 30.57 in - NE 6.9 mph - N/A   Clear
7:20 PM 39.2 °F 32.5 °F 32.0 °F 75% 30.57 in - NE 10.4 mph - N/A   Clear
7:50 PM 39.2 °F 35.0 °F 32.0 °F 75% 30.57 in - ENE 5.8 mph - N/A   Clear
8:20 PM 39.2 °F 37.0 °F 32.0 °F 75% 30.57 in - Variable 3.5 mph - N/A   Clear
8:50 PM 35.6 °F 29.2 °F 30.2 °F 81% 30.57 in - NNE 8.1 mph - N/A   Clear
9:20 PM 35.6 °F 31.7 °F 30.2 °F 81% 30.57 in - ENE 4.6 mph - N/A   Clear
9:50 PM 35.6 °F 29.9 °F 30.2 °F 81% 30.57 in - NNE 6.9 mph - N/A   Clear
10:20 PM 35.6 °F 29.2 °F 30.2 °F 81% 30.57 in - NNE 8.1 mph - N/A   Clear
10:50 PM 33.8 °F 29.6 °F 30.2 °F 87% 30.57 in - ENE 4.6 mph - N/A   Clear
11:20 PM 33.8 °F 28.6 °F 28.4 °F 81% 30.57 in - NE 5.8 mph - N/A   Clear
11:50 PM 32.0 °F 27.5 °F 28.4 °F 87% 30.57 in - ENE 4.6 mph - N/A   Clear